• In Hungary
  • List of Countries
  • For 7 days
  • Water Temperature
  • Satellite Maps
  • Weather Map
  • News
  • Weather Widgets
  • user-avatar
    Login

    Hourly Weather Belye Mezhi

    Today, 20 August, Monday

    Time Temperature Precipitation Wind Pressure Humidity
    00:00 +16°C° 0 mm 2 mps 745 mmHg 96%
    01:00 +15°C° 0 mm 2 mps 745 mmHg 96%
    02:00 +15°C° 0 mm 2 mps 745 mmHg 96%
    03:00 +15°C° 0 mm 2 mps 745 mmHg 97%
    04:00 +15°C° 0 mm 2 mps 745 mmHg 97%
    05:00 +15°C° 0 mm 2 mps 745 mmHg 97%
    06:00 +15°C° 0 mm 2 mps 745 mmHg 95%
    07:00 +16°C° 0 mm 3 mps 745 mmHg 93%
    08:00 +17°C° 0 mm 3 mps 745 mmHg 91%
    09:00 +17°C° 0.1 mm 3 mps 745 mmHg 85%
    10:00 +18°C° 0.1 mm 3 mps 745 mmHg 80%
    11:00 +19°C° 0.1 mm 3 mps 745 mmHg 74%
    12:00 +20°C° 0 mm 3 mps 745 mmHg 70%
    13:00 +20°C° 0 mm 3 mps 745 mmHg 66%
    14:00 +21°C° 0 mm 3 mps 745 mmHg 62%
    15:00 +21°C° 0 mm 3 mps 744 mmHg 65%
    16:00 +20°C° 0 mm 3 mps 744 mmHg 68%
    17:00 +20°C° 0 mm 2 mps 743 mmHg 71%
    18:00 +19°C° 0.1 mm 2 mps 743 mmHg 79%
    19:00 +18°C° 0.1 mm 2 mps 743 mmHg 86%
    20:00 +17°C° 0.1 mm 2 mps 742 mmHg 94%
    21:00 +16°C° 0 mm 2 mps 742 mmHg 95%
    22:00 +16°C° 0 mm 2 mps 741 mmHg 96%
    23:00 +16°C° 0 mm 3 mps 741 mmHg 97%

    Tomorrow, 21 August, Tuesday

    Time Temperature Precipitation Wind Pressure Humidity
    00:00 +16°C° 0.1 mm 3 mps 740 mmHg 97%
    01:00 +15°C° 0.1 mm 4 mps 739 mmHg 96%
    02:00 +17°C° 0.1 mm 4 mps 738 mmHg 96%
    03:00 +17°C° 0.2 mm 4 mps 738 mmHg 95%
    04:00 +16°C° 0.2 mm 5 mps 737 mmHg 95%
    05:00 +16°C° 0.2 mm 5 mps 736 mmHg 94%
    06:00 +16°C° 0.6 mm 6 mps 735 mmHg 93%
    07:00 +17°C° 0.6 mm 6 mps 735 mmHg 92%
    08:00 +17°C° 0.6 mm 6 mps 734 mmHg 92%
    09:00 +17°C° 0.9 mm 6 mps 734 mmHg 89%
    10:00 +16°C° 0.9 mm 6 mps 734 mmHg 87%
    11:00 +16°C° 0.9 mm 6 mps 734 mmHg 84%
    12:00 +16°C° 0.2 mm 6 mps 735 mmHg 81%
    13:00 +15°C° 0.2 mm 7 mps 736 mmHg 78%
    14:00 +15°C° 0.2 mm 7 mps 736 mmHg 74%
    15:00 +15°C° 0.1 mm 6 mps 737 mmHg 72%
    16:00 +15°C° 0.1 mm 6 mps 738 mmHg 71%
    17:00 +15°C° 0.1 mm 6 mps 738 mmHg 69%
    18:00 +14°C° 0.1 mm 5 mps 739 mmHg 74%
    19:00 +13°C° 0.1 mm 5 mps 739 mmHg 79%
    20:00 +12°C° 0.1 mm 4 mps 740 mmHg 85%
    21:00 +12°C° 0 mm 4 mps 740 mmHg 85%
    22:00 +11°C° 0 mm 4 mps 740 mmHg 85%
    23:00 +11°C° 0 mm 4 mps 740 mmHg 86%

    Day after tomorrow, 22 August, Wednesday

    Time Temperature Precipitation Wind Pressure Humidity
    00:00 +11°C° 0 mm 4 mps 740 mmHg 86%
    01:00 +10°C° 0 mm 4 mps 741 mmHg 85%
    02:00 +10°C° 0 mm 4 mps 741 mmHg 85%
    03:00 +10°C° 0 mm 4 mps 742 mmHg 84%
    04:00 +10°C° 0 mm 4 mps 742 mmHg 84%
    05:00 +8°C° 0 mm 4 mps 742 mmHg 84%
    06:00 +9°C° 0 mm 5 mps 743 mmHg 77%
    07:00 +10°C° 0 mm 5 mps 743 mmHg 71%
    08:00 +11°C° 0 mm 6 mps 744 mmHg 65%
    09:00 +13°C° 0 mm 6 mps 744 mmHg 62%
    10:00 +14°C° 0 mm 6 mps 744 mmHg 58%
    11:00 +14°C° 0 mm 6 mps 745 mmHg 55%
    12:00 +15°C° 0 mm 6 mps 745 mmHg 51%
    13:00 +16°C° 0 mm 6 mps 745 mmHg 48%
    14:00 +16°C° 0 mm 6 mps 746 mmHg 45%
    15:00 +16°C° 0 mm 6 mps 746 mmHg 47%
    16:00 +16°C° 0 mm 5 mps 747 mmHg 48%
    17:00 +15°C° 0 mm 4 mps 747 mmHg 50%
    18:00 +14°C° 0 mm 4 mps 748 mmHg 56%
    19:00 +12°C° 0 mm 3 mps 748 mmHg 62%
    20:00 +10°C° 0 mm 3 mps 748 mmHg 69%
    21:00 +10°C° 0 mm 3 mps 749 mmHg 70%
    22:00 +9°C° 0 mm 3 mps 749 mmHg 71%
    23:00 +9°C° 0 mm 3 mps 749 mmHg 72%

    23 August, Thursday

    Time Temperature Precipitation Wind Pressure Humidity
    00:00 +8°C° 0 mm 3 mps 750 mmHg 74%
    01:00 +8°C° 0 mm 3 mps 750 mmHg 75%
    02:00 +8°C° 0 mm 2 mps 750 mmHg 76%
    03:00 +8°C° 0 mm 2 mps 750 mmHg 78%
    04:00 +7°C° 0 mm 2 mps 750 mmHg 79%
    05:00 +7°C° 0 mm 2 mps 750 mmHg 80%
    06:00 +10°C° 0 mm 3 mps 750 mmHg 75%
    07:00 +12°C° 0 mm 3 mps 750 mmHg 69%
    08:00 +14°C° 0 mm 3 mps 750 mmHg 63%
    09:00 +15°C° 0 mm 4 mps 750 mmHg 58%
    10:00 +18°C° 0 mm 4 mps 749 mmHg 53%
    11:00 +20°C° 0 mm 5 mps 749 mmHg 48%
    12:00 +20°C° 0 mm 5 mps 749 mmHg 47%
    13:00 +21°C° 0 mm 5 mps 749 mmHg 46%
    14:00 +21°C° 0 mm 5 mps 749 mmHg 45%
    15:00 +21°C° 0 mm 4 mps 749 mmHg 49%
    16:00 +21°C° 0 mm 4 mps 748 mmHg 53%
    17:00 +20°C° 0 mm 3 mps 748 mmHg 56%
    18:00 +18°C° 0 mm 3 mps 748 mmHg 64%
    19:00 +16°C° 0 mm 3 mps 749 mmHg 71%
    20:00 +14°C° 0 mm 2 mps 749 mmHg 79%
    21:00 +14°C° 0 mm 2 mps 749 mmHg 80%
    22:00 +13°C° 0 mm 2 mps 749 mmHg 82%
    23:00 +13°C° 0 mm 2 mps 749 mmHg 84%

    24 August, Friday

    Time Temperature Precipitation Wind Pressure Humidity
    00:00 +12°C° 0 mm 2 mps 749 mmHg 85%
    01:00 +12°C° 0 mm 2 mps 749 mmHg 86%
    02:00 +10°C° 0 mm 2 mps 749 mmHg 87%
    03:00 +10°C° 0 mm 2 mps 749 mmHg 87%
    04:00 +10°C° 0 mm 2 mps 749 mmHg 88%
    05:00 +10°C° 0 mm 2 mps 749 mmHg 89%
    06:00 +13°C° 0 mm 2 mps 749 mmHg 82%
    07:00 +15°C° 0 mm 2 mps 749 mmHg 74%
    08:00 +17°C° 0 mm 2 mps 750 mmHg 67%
    09:00 +19°C° 0 mm 2 mps 749 mmHg 62%
    10:00 +20°C° 0 mm 3 mps 749 mmHg 56%
    11:00 +22°C° 0 mm 3 mps 749 mmHg 51%
    12:00 +24°C° 0 mm 3 mps 749 mmHg 49%
    13:00 +24°C° 0 mm 3 mps 749 mmHg 47%
    14:00 +25°C° 0 mm 3 mps 749 mmHg 46%
    15:00 +24°C° 0 mm 2 mps 749 mmHg 50%
    16:00 +24°C° 0 mm 2 mps 749 mmHg 54%
    17:00 +23°C° 0 mm 2 mps 748 mmHg 57%
    18:00 +20°C° 0 mm 2 mps 748 mmHg 65%
    19:00 +18°C° 0 mm 2 mps 748 mmHg 72%
    20:00 +16°C° 0 mm 2 mps 748 mmHg 80%
    21:00 +15°C° 0 mm 2 mps 749 mmHg 82%
    22:00 +14°C° 0 mm 2 mps 749 mmHg 85%
    23:00 +14°C° 0 mm 2 mps 749 mmHg 87%

    25 August, Saturday

    Time Temperature Precipitation Wind Pressure Humidity
    00:00 +13°C° 0 mm 2 mps 749 mmHg 89%
    01:00 +13°C° 0 mm 2 mps 749 mmHg 91%
    02:00 +12°C° 0 mm 2 mps 749 mmHg 92%
    03:00 +12°C° 0 mm 2 mps 749 mmHg 93%
    04:00 +12°C° 0 mm 2 mps 749 mmHg 93%
    05:00 +12°C° 0 mm 2 mps 749 mmHg 94%
    06:00 +14°C° 0 mm 2 mps 749 mmHg 85%
    07:00 +16°C° 0 mm 2 mps 749 mmHg 76%
    08:00 +18°C° 0 mm 3 mps 748 mmHg 68%
    09:00 +20°C° 0 mm 3 mps 748 mmHg 62%
    10:00 +22°C° 0 mm 3 mps 748 mmHg 56%
    11:00 +23°C° 0 mm 4 mps 748 mmHg 49%
    12:00 +25°C° 0 mm 4 mps 748 mmHg 48%
    13:00 +25°C° 0 mm 4 mps 748 mmHg 47%
    14:00 +26°C° 0 mm 3 mps 748 mmHg 45%
    15:00 +25°C° 0 mm 3 mps 747 mmHg 49%
    16:00 +25°C° 0 mm 3 mps 747 mmHg 53%
    17:00 +24°C° 0 mm 2 mps 747 mmHg 57%
    18:00 +21°C° 0 mm 2 mps 747 mmHg 64%
    19:00 +19°C° 0 mm 2 mps 747 mmHg 71%
    20:00 +16°C° 0 mm 2 mps 747 mmHg 78%
    21:00 +16°C° 0 mm 2 mps 747 mmHg 79%
    22:00 +15°C° 0 mm 2 mps 747 mmHg 81%
    23:00 +15°C° 0 mm 2 mps 748 mmHg 82%
    Show more